Weather History for Plattsburgh, NY

Change the Weather History Date:

Thursday, November 22, 2012

  Actual Average Record
Temperature  
Mean Temperature 37 °F 34 °F  
Max Temperature 52 °F 43 °F 67 °F (1953)
Min Temperature 22 °F 25 °F 6 °F (1972)
Degree Days  
Heating Degree Days 28 31  
Month to date heating degree days 625 588  
Since 1 July heating degree days 1283 1371  
Cooling Degree Days 0 0  
Month to date cooling degree days 0  
Year to date cooling degree days 346  
Moisture  
Dew Point 28 °F    
Average Humidity 74    
Maximum Humidity 100    
Minimum Humidity 48    
Precipitation  
Precipitation 0.00 in - 0.64 in (1962)
Month to date precipitation 0.37  
Year to date precipitation 24.48  
Sea Level Pressure  
Sea Level Pressure 30.15 in    
Wind  
Wind Speed 3 mph (SSE)    
Max Wind Speed 14 mph    
Max Gust Speed 18 mph    
Visibility 9 miles    
Events      
T = Trace of Precipitation, MM = Missing Value Source: NWS Daily Summary

Daily Weather History Graph

Daily Weather History Graph

Search for Another Location

Airport:

Trip Planner

Search our weather history database for the weather conditions in past years. The results will help you decide how hot, cold, wet, or windy it might be!

Date:

Astronomy

Nov. 22, 2012 Rise Set
Actual Time 7:00 AM EST 4:19 PM EST
Civil Twilight 6:28 AM EST 4:51 PM EST
Nautical Twilight 5:52 AM EST 5:27 PM EST
Astronomical Twilight 5:17 AM EST 6:02 PM EST
Moon 1:15 PM EST (11/22) 1:04 AM EST (11/22)
Length of Visible Light 10h 23m
Length of Day
9h 19m
Waxing Gibbous, 71% of the Moon is Illuminated
Nov 22
Waxing Gibbous
Nov 28
Full
Dec 6
Last Quarter
Dec 13
New
Dec 20
First Quarter

Hourly Weather History & Observations

Time (EST) Temp. Windchill Dew Point Humidity Pressure Visibility Wind Dir Wind Speed Gust Speed Precip Events Conditions
12:53 AM 27.0 °F 23.0 °F 26.1 °F 96% 30.22 in 5.0 mi SSW 3.5 mph - N/A   Clear
1:53 AM 27.0 °F - 25.0 °F 92% 30.22 in 6.0 mi Calm Calm - N/A   Clear
2:53 AM 25.0 °F - 24.1 °F 96% 30.22 in 5.0 mi Calm Calm - N/A   Clear
3:53 AM 24.1 °F - 23.0 °F 96% 30.22 in 6.0 mi Calm Calm - N/A   Clear
4:53 AM 24.1 °F - 23.0 °F 96% 30.23 in 7.0 mi Calm Calm - N/A   Clear
5:53 AM 25.0 °F - 23.0 °F 92% 30.23 in 8.0 mi Calm Calm - N/A   Clear
6:53 AM 24.1 °F - 21.9 °F 91% 30.23 in 9.0 mi Calm Calm - N/A   Clear
7:53 AM 28.0 °F - 26.1 °F 92% 30.24 in 10.0 mi Calm Calm - N/A   Clear
8:53 AM 33.1 °F - 30.0 °F 89% 30.23 in 10.0 mi Calm Calm - N/A   Clear
9:53 AM 42.1 °F 40.2 °F 30.9 °F 65% 30.21 in 10.0 mi South 3.5 mph - N/A   Clear
10:53 AM 46.9 °F - 32.0 °F 56% 30.19 in 10.0 mi SE 8.1 mph - N/A   Clear
11:53 AM 48.9 °F - 33.1 °F 54% 30.17 in 10.0 mi SE 9.2 mph - N/A   Clear
12:53 PM 50.0 °F - 33.1 °F 52% 30.14 in 10.0 mi SSE 12.7 mph - N/A   Clear
1:53 PM 52.0 °F - 35.1 °F 53% 30.11 in 10.0 mi SSE 12.7 mph - N/A   Clear
2:53 PM 52.0 °F - 32.0 °F 47% 30.09 in 10.0 mi South 8.1 mph - N/A   Clear
3:53 PM 48.9 °F - 33.1 °F 54% 30.09 in 10.0 mi SSE 9.2 mph - N/A   Clear
4:53 PM 46.0 °F 43.9 °F 30.9 °F 56% 30.09 in 10.0 mi South 4.6 mph - N/A   Clear
5:53 PM 41.0 °F 38.0 °F 30.9 °F 67% 30.08 in 10.0 mi South 4.6 mph - N/A   Clear
6:53 PM 37.9 °F - 30.0 °F 73% 30.08 in 10.0 mi Calm Calm - N/A   Clear
7:53 PM 33.1 °F - 28.9 °F 85% 30.08 in 10.0 mi Calm Calm - N/A   Clear
9:53 PM 30.0 °F - 26.1 °F 85% 30.05 in 10.0 mi Calm Calm - N/A   Clear
10:53 PM 30.0 °F - 27.0 °F 88% 30.04 in 10.0 mi Calm Calm - N/A   Clear
11:53 PM 28.0 °F - 25.0 °F 88% 30.02 in 10.0 mi Calm Calm - N/A   Clear